contact:dominique.lefevre@mio.osupytheas.fr, maurice.libes@osupytheas.fr, didier.mallarino@osupytheas.fr
Project:EMSO http://www.emso-fr.org/EMSO-France
Depth: 2436.0 m
Title:EMSO Ligure Ouest : Data MII capteur MICROCAT
DateTime_Computer,Latitude,Longitude,Temperature,Conductivity,Pressure,DateTime_Instrument
DateTime_Computer,Latitude,Longitude,degC,S m-1,dbar,DateTime_Instrument
2023-05-27T00:02:10Z,42.805,6.029,13.3036,4.60102,2470.74,2023-5-27T02:04:23Z
2023-05-27T00:05:13Z,42.805,6.029,13.3030,4.60102,2470.763,2023-5-27T02:07:26Z
2023-05-27T00:08:16Z,42.805,6.029,13.3029,4.60091,2470.75,2023-5-27T02:10:29Z
2023-05-27T00:11:19Z,42.805,6.029,13.3036,4.60106,2470.74,2023-5-27T02:13:32Z
2023-05-27T00:14:22Z,42.805,6.029,13.3033,4.60110,2470.763,2023-5-27T02:16:35Z
2023-05-27T00:17:26Z,42.805,6.029,13.3041,4.60110,2470.74,2023-5-27T02:19:38Z
2023-05-27T00:20:29Z,42.805,6.029,13.3034,4.60114,2470.74,2023-5-27T02:22:41Z
2023-05-27T00:23:32Z,42.805,6.029,13.3034,4.60110,2470.74,2023-5-27T02:25:44Z
2023-05-27T00:26:35Z,42.805,6.029,13.3029,4.60109,2470.74,2023-5-27T02:28:47Z
2023-05-27T00:29:38Z,42.805,6.029,13.3030,4.60099,2470.717,2023-5-27T02:31:50Z
2023-05-27T00:32:41Z,42.805,6.029,13.3031,4.60107,2470.74,2023-5-27T02:34:53Z
2023-05-27T00:35:44Z,42.805,6.029,13.3034,4.60114,2470.763,2023-5-27T02:37:56Z
2023-05-27T00:38:47Z,42.805,6.029,13.3029,4.60105,2470.717,2023-5-27T02:41:00Z
2023-05-27T00:41:50Z,42.805,6.029,13.3031,4.60102,2470.763,2023-5-27T02:44:03Z
2023-05-27T00:44:53Z,42.805,6.029,13.3036,4.60109,2470.74,2023-5-27T02:47:06Z
2023-05-27T00:47:56Z,42.805,6.029,13.3030,4.60106,2470.763,2023-5-27T02:50:09Z
2023-05-27T00:50:59Z,42.805,6.029,13.3034,4.60099,2470.763,2023-5-27T02:53:12Z
2023-05-27T00:54:02Z,42.805,6.029,13.3031,4.60101,2470.763,2023-5-27T02:56:15Z
2023-05-27T00:57:06Z,42.805,6.029,13.3031,4.60102,2470.787,2023-5-27T02:59:18Z
2023-05-27T01:00:09Z,42.805,6.029,13.3030,4.60099,2470.74,2023-5-27T03:02:21Z
2023-05-27T01:03:12Z,42.805,6.029,13.3029,4.60096,2470.763,2023-5-27T03:05:24Z
2023-05-27T01:06:15Z,42.805,6.029,13.3039,4.60099,2470.74,2023-5-27T03:08:27Z
2023-05-27T01:09:18Z,42.805,6.029,13.3033,4.60122,2470.763,2023-5-27T03:11:30Z
2023-05-27T01:12:21Z,42.805,6.029,13.3039,4.60104,2470.74,2023-5-27T03:14:33Z
2023-05-27T01:15:24Z,42.805,6.029,13.3031,4.60107,2470.754,2023-5-27T03:17:37Z
2023-05-27T01:18:27Z,42.805,6.029,13.3031,4.60102,2470.777,2023-5-27T03:20:40Z
2023-05-27T01:21:30Z,42.805,6.029,13.3031,4.60105,2470.717,2023-5-27T03:23:43Z
2023-05-27T01:24:33Z,42.805,6.029,13.3029,4.60095,2470.74,2023-5-27T03:26:46Z
2023-05-27T01:27:36Z,42.805,6.029,13.3026,4.60093,2470.777,2023-5-27T03:29:49Z
2023-05-27T01:30:39Z,42.805,6.029,13.3034,4.60098,2470.717,2023-5-27T03:32:52Z
2023-05-27T01:33:43Z,42.805,6.029,13.3033,4.60101,2470.74,2023-5-27T03:35:55Z
2023-05-27T01:36:46Z,42.805,6.029,13.3029,4.60092,2470.74,2023-5-27T03:38:58Z
2023-05-27T01:39:49Z,42.805,6.029,13.3031,4.60095,2470.707,2023-5-27T03:42:01Z
2023-05-27T01:42:52Z,42.805,6.029,13.3035,4.60095,2470.763,2023-5-27T03:45:04Z
2023-05-27T01:45:55Z,42.805,6.029,13.3031,4.60093,2470.763,2023-5-27T03:48:07Z
2023-05-27T01:48:58Z,42.805,6.029,13.3032,4.60094,2470.74,2023-5-27T03:51:10Z
2023-05-27T01:52:01Z,42.805,6.029,13.3029,4.60103,2470.754,2023-5-27T03:54:14Z
2023-05-27T01:55:04Z,42.805,6.029,13.3028,4.60097,2470.74,2023-5-27T03:57:17Z
2023-05-27T01:58:07Z,42.805,6.029,13.3031,4.60094,2470.763,2023-5-27T04:00:20Z
2023-05-27T02:01:10Z,42.805,6.029,13.3035,4.60099,2470.74,2023-5-27T04:03:23Z
2023-05-27T02:04:13Z,42.805,6.029,13.3034,4.60121,2470.777,2023-5-27T04:06:26Z
2023-05-27T02:07:16Z,42.805,6.029,13.3034,4.60109,2470.717,2023-5-27T04:09:29Z
2023-05-27T02:10:20Z,42.805,6.029,13.3033,4.60111,2470.777,2023-5-27T04:12:32Z
2023-05-27T02:13:23Z,42.805,6.029,13.3029,4.60108,2470.74,2023-5-27T04:15:35Z
2023-05-27T02:16:26Z,42.805,6.029,13.3034,4.60114,2470.74,2023-5-27T04:18:38Z
2023-05-27T02:19:29Z,42.805,6.029,13.3031,4.60119,2470.73,2023-5-27T04:21:41Z
2023-05-27T02:22:32Z,42.805,6.029,13.3028,4.60099,2470.74,2023-5-27T04:24:44Z
2023-05-27T02:25:35Z,42.805,6.029,13.3033,4.60102,2470.703,2023-5-27T04:27:47Z
2023-05-27T02:28:38Z,42.805,6.029,13.3028,4.60099,2470.717,2023-5-27T04:30:50Z
2023-05-27T02:31:41Z,42.805,6.029,13.3039,4.60118,2470.754,2023-5-27T04:33:54Z
2023-05-27T02:34:44Z,42.805,6.029,13.3036,4.60102,2470.73,2023-5-27T04:36:57Z
2023-05-27T02:37:47Z,42.805,6.029,13.3035,4.60114,2470.777,2023-5-27T04:40:00Z
2023-05-27T02:40:50Z,42.805,6.029,13.3031,4.60102,2470.777,2023-5-27T04:43:03Z
2023-05-27T02:43:53Z,42.805,6.029,13.3036,4.60103,2470.777,2023-5-27T04:46:06Z
2023-05-27T02:46:56Z,42.805,6.029,13.3036,4.60114,2470.717,2023-5-27T04:49:09Z
2023-05-27T02:50:00Z,42.805,6.029,13.3035,4.60109,2470.754,2023-5-27T04:52:12Z
2023-05-27T02:53:03Z,42.805,6.029,13.3036,4.60114,2470.754,2023-5-27T04:55:15Z
2023-05-27T02:56:06Z,42.805,6.029,13.3035,4.60106,2470.777,2023-5-27T04:58:18Z
2023-05-27T02:59:09Z,42.805,6.029,13.3030,4.60103,2470.73,2023-5-27T05:01:21Z
2023-05-27T03:02:12Z,42.805,6.029,13.3038,4.60111,2470.74,2023-5-27T05:04:24Z
2023-05-27T03:05:15Z,42.805,6.029,13.3029,4.60105,2470.763,2023-5-27T05:07:27Z
2023-05-27T03:08:18Z,42.805,6.029,13.3032,4.60098,2470.763,2023-5-27T05:10:31Z
2023-05-27T03:11:21Z,42.805,6.029,13.3038,4.60122,2470.754,2023-5-27T05:13:34Z
2023-05-27T03:14:24Z,42.805,6.029,13.3035,4.60117,2470.74,2023-5-27T05:16:37Z
2023-05-27T03:17:27Z,42.805,6.029,13.3036,4.60120,2470.74,2023-5-27T05:19:40Z
2023-05-27T03:20:30Z,42.805,6.029,13.3034,4.60134,2470.717,2023-5-27T05:22:43Z
2023-05-27T03:23:33Z,42.805,6.029,13.3034,4.60126,2470.73,2023-5-27T05:25:46Z
2023-05-27T03:26:37Z,42.805,6.029,13.3041,4.60141,2470.74,2023-5-27T05:28:49Z
2023-05-27T03:29:40Z,42.805,6.029,13.3050,4.60169,2470.73,2023-5-27T05:31:52Z
2023-05-27T03:32:43Z,42.805,6.029,13.3041,4.60142,2470.717,2023-5-27T05:34:55Z
2023-05-27T03:35:46Z,42.805,6.029,13.3043,4.60137,2470.717,2023-5-27T05:37:58Z
2023-05-27T03:38:49Z,42.805,6.029,13.3036,4.60147,2470.717,2023-5-27T05:41:01Z
2023-05-27T03:41:52Z,42.805,6.029,13.3034,4.60123,2470.73,2023-5-27T05:44:04Z
2023-05-27T03:44:55Z,42.805,6.029,13.3032,4.60125,2470.754,2023-5-27T05:47:07Z
2023-05-27T03:47:58Z,42.805,6.029,13.3051,4.60125,2470.73,2023-5-27T05:50:11Z
2023-05-27T03:51:01Z,42.805,6.029,13.3043,4.60119,2470.693,2023-5-27T05:53:14Z
2023-05-27T03:54:04Z,42.805,6.029,13.3036,4.60119,2470.707,2023-5-27T05:56:17Z
2023-05-27T03:57:07Z,42.805,6.029,13.3038,4.60117,2470.67,2023-5-27T05:59:20Z
2023-05-27T04:00:10Z,42.805,6.029,13.3043,4.60142,2470.707,2023-5-27T06:02:23Z
2023-05-27T04:03:13Z,42.805,6.029,13.3046,4.60149,2470.693,2023-5-27T06:05:26Z
2023-05-27T04:06:17Z,42.805,6.029,13.3041,4.60140,2470.693,2023-5-27T06:08:29Z
2023-05-27T04:09:20Z,42.805,6.029,13.3043,4.60135,2470.684,2023-5-27T06:11:32Z
2023-05-27T04:12:23Z,42.805,6.029,13.3042,4.60135,2470.693,2023-5-27T06:14:35Z
2023-05-27T04:15:26Z,42.805,6.029,13.3038,4.60131,2470.693,2023-5-27T06:17:38Z
2023-05-27T04:18:29Z,42.805,6.029,13.3043,4.60144,2470.693,2023-5-27T06:20:41Z
2023-05-27T04:21:32Z,42.805,6.029,13.3038,4.60140,2470.67,2023-5-27T06:23:44Z
2023-05-27T04:24:35Z,42.805,6.029,13.3038,4.60133,2470.693,2023-5-27T06:26:48Z
2023-05-27T04:27:38Z,42.805,6.029,13.3043,4.60129,2470.707,2023-5-27T06:29:51Z
2023-05-27T04:30:41Z,42.805,6.029,13.3043,4.60134,2470.693,2023-5-27T06:32:54Z
2023-05-27T04:33:44Z,42.805,6.029,13.3044,4.60120,2470.693,2023-5-27T06:35:57Z
2023-05-27T04:36:47Z,42.805,6.029,13.3039,4.60122,2470.717,2023-5-27T06:39:00Z
2023-05-27T04:39:50Z,42.805,6.029,13.3048,4.60137,2470.67,2023-5-27T06:42:03Z
2023-05-27T04:42:54Z,42.805,6.029,13.3040,4.60149,2470.707,2023-5-27T06:45:06Z
2023-05-27T04:45:57Z,42.805,6.029,13.3036,4.60149,2470.717,2023-5-27T06:48:09Z
2023-05-27T04:49:00Z,42.805,6.029,13.3046,4.60134,2470.67,2023-5-27T06:51:12Z
2023-05-27T04:52:03Z,42.805,6.029,13.3039,4.60132,2470.684,2023-5-27T06:54:15Z
2023-05-27T04:55:06Z,42.805,6.029,13.3036,4.60122,2470.67,2023-5-27T06:57:18Z
2023-05-27T04:58:09Z,42.805,6.029,13.3042,4.60142,2470.707,2023-5-27T07:00:21Z
2023-05-27T05:01:12Z,42.805,6.029,13.3045,4.60135,2470.707,2023-5-27T07:03:25Z
2023-05-27T05:04:15Z,42.805,6.029,13.3052,4.60150,2470.693,2023-5-27T07:06:28Z
2023-05-27T05:07:18Z,42.805,6.029,13.3071,4.60137,2470.684,2023-5-27T07:09:31Z
2023-05-27T05:10:21Z,42.805,6.029,13.3045,4.60132,2470.679,2023-5-27T07:12:34Z
2023-05-27T05:13:24Z,42.805,6.029,13.3048,4.60124,2470.717,2023-5-27T07:15:37Z
2023-05-27T05:16:27Z,42.805,6.029,13.3051,4.60128,2470.646,2023-5-27T07:18:40Z
2023-05-27T05:19:31Z,42.805,6.029,13.3039,4.60131,2470.646,2023-5-27T07:21:43Z
2023-05-27T05:22:34Z,42.805,6.029,13.3043,4.60132,2470.661,2023-5-27T07:24:46Z
2023-05-27T05:25:37Z,42.805,6.029,13.3049,4.60150,2470.693,2023-5-27T07:27:49Z
2023-05-27T05:28:40Z,42.805,6.029,13.3038,4.60125,2470.67,2023-5-27T07:30:52Z
2023-05-27T05:31:43Z,42.805,6.029,13.3050,4.60132,2470.693,2023-5-27T07:33:55Z
2023-05-27T05:34:46Z,42.805,6.029,13.3056,4.60129,2470.67,2023-5-27T07:36:58Z
2023-05-27T05:37:49Z,42.805,6.029,13.3046,4.60140,2470.67,2023-5-27T07:40:02Z
2023-05-27T05:40:52Z,42.805,6.029,13.3050,4.60155,2470.646,2023-5-27T07:43:05Z
2023-05-27T05:43:55Z,42.805,6.029,13.3040,4.60133,2470.684,2023-5-27T07:46:08Z
2023-05-27T05:46:58Z,42.805,6.029,13.3042,4.60134,2470.67,2023-5-27T07:49:11Z
2023-05-27T05:50:01Z,42.805,6.029,13.3046,4.60122,2470.67,2023-5-27T07:52:14Z
2023-05-27T05:53:04Z,42.805,6.029,13.3043,4.60120,2470.684,2023-5-27T07:55:17Z
2023-05-27T05:56:08Z,42.805,6.029,13.3052,4.60145,2470.661,2023-5-27T07:58:20Z
2023-05-27T05:59:11Z,42.805,6.029,13.3064,4.60130,2470.707,2023-5-27T08:01:23Z
2023-05-27T06:02:14Z,42.805,6.029,13.3051,4.60117,2470.661,2023-5-27T08:04:26Z
2023-05-27T06:05:17Z,42.805,6.029,13.3052,4.60102,2470.684,2023-5-27T08:07:29Z
2023-05-27T06:08:20Z,42.805,6.029,13.3054,4.60134,2470.67,2023-5-27T08:10:32Z
2023-05-27T06:11:23Z,42.805,6.029,13.3050,4.60110,2470.707,2023-5-27T08:13:35Z
2023-05-27T06:14:26Z,42.805,6.029,13.3047,4.60129,2470.661,2023-5-27T08:16:38Z
2023-05-27T06:17:29Z,42.805,6.029,13.3046,4.60147,2470.684,2023-5-27T08:19:42Z
2023-05-27T06:20:32Z,42.805,6.029,13.3051,4.60158,2470.637,2023-5-27T08:22:45Z
2023-05-27T06:23:35Z,42.805,6.029,13.3043,4.60137,2470.646,2023-5-27T08:25:48Z
2023-05-27T06:26:38Z,42.805,6.029,13.3049,4.60141,2470.646,2023-5-27T08:28:51Z
2023-05-27T06:29:41Z,42.805,6.029,13.3051,4.60132,2470.684,2023-5-27T08:31:54Z
2023-05-27T06:32:43Z,42.805,6.029,13.3043,4.60147,2470.684,2023-5-27T08:34:56Z
2023-05-27T06:35:46Z,42.805,6.029,13.3051,4.60140,2470.684,2023-5-27T08:37:59Z
2023-05-27T06:38:49Z,42.805,6.029,13.3043,4.60124,2470.67,2023-5-27T08:41:02Z
2023-05-27T06:41:52Z,42.805,6.029,13.3050,4.60112,2470.646,2023-5-27T08:44:05Z
2023-05-27T06:44:55Z,42.805,6.029,13.3056,4.60119,2470.624,2023-5-27T08:47:08Z
2023-05-27T06:47:59Z,42.805,6.029,13.3045,4.60105,2470.67,2023-5-27T08:50:11Z
2023-05-27T06:51:02Z,42.805,6.029,13.3043,4.60105,2470.684,2023-5-27T08:53:14Z
2023-05-27T06:54:05Z,42.805,6.029,13.3034,4.60105,2470.661,2023-5-27T08:56:17Z
2023-05-27T06:57:08Z,42.805,6.029,13.3039,4.60090,2470.624,2023-5-27T08:59:20Z
2023-05-27T07:00:11Z,42.805,6.029,13.3054,4.60099,2470.637,2023-5-27T09:02:23Z
2023-05-27T07:03:14Z,42.805,6.029,13.3054,4.60112,2470.67,2023-5-27T09:05:26Z
2023-05-27T07:06:17Z,42.805,6.029,13.3041,4.60108,2470.661,2023-5-27T09:08:29Z
2023-05-27T07:09:20Z,42.805,6.029,13.3042,4.60092,2470.646,2023-5-27T09:11:33Z
2023-05-27T07:12:23Z,42.805,6.029,13.3039,4.60097,2470.646,2023-5-27T09:14:36Z
2023-05-27T07:15:26Z,42.805,6.029,13.3046,4.60087,2470.637,2023-5-27T09:17:39Z
2023-05-27T07:18:29Z,42.805,6.029,13.3026,4.60092,2470.67,2023-5-27T09:20:42Z
2023-05-27T07:21:32Z,42.805,6.029,13.3035,4.60108,2470.646,2023-5-27T09:23:45Z
2023-05-27T07:24:35Z,42.805,6.029,13.3040,4.60110,2470.661,2023-5-27T09:26:48Z
2023-05-27T07:27:39Z,42.805,6.029,13.3046,4.60102,2470.661,2023-5-27T09:29:51Z
2023-05-27T07:30:42Z,42.805,6.029,13.3048,4.60125,2470.684,2023-5-27T09:32:54Z
2023-05-27T07:33:45Z,42.805,6.029,13.3052,4.60109,2470.624,2023-5-27T09:35:57Z
2023-05-27T07:36:48Z,42.805,6.029,13.3051,4.60096,2470.646,2023-5-27T09:39:00Z
2023-05-27T07:39:51Z,42.805,6.029,13.3043,4.60109,2470.661,2023-5-27T09:42:03Z
2023-05-27T07:42:54Z,42.805,6.029,13.3043,4.60100,2470.684,2023-5-27T09:45:06Z
2023-05-27T07:45:57Z,42.805,6.029,13.3051,4.60102,2470.624,2023-5-27T09:48:10Z
2023-05-27T07:49:00Z,42.805,6.029,13.3051,4.60101,2470.684,2023-5-27T09:51:13Z
2023-05-27T07:52:03Z,42.805,6.029,13.3046,4.60102,2470.614,2023-5-27T09:54:16Z
2023-05-27T07:55:06Z,42.805,6.029,13.3040,4.60121,2470.67,2023-5-27T09:57:19Z
2023-05-27T07:58:09Z,42.805,6.029,13.3043,4.60109,2470.637,2023-5-27T10:00:22Z
2023-05-27T08:01:12Z,42.805,6.029,13.3047,4.60104,2470.624,2023-5-27T10:03:25Z
2023-05-27T08:04:16Z,42.805,6.029,13.3039,4.60105,2470.624,2023-5-27T10:06:28Z
2023-05-27T08:07:19Z,42.805,6.029,13.3047,4.60109,2470.661,2023-5-27T10:09:31Z
2023-05-27T08:10:22Z,42.805,6.029,13.3048,4.60103,2470.624,2023-5-27T10:12:34Z
2023-05-27T08:13:25Z,42.805,6.029,13.3046,4.60105,2470.646,2023-5-27T10:15:37Z
2023-05-27T08:16:28Z,42.805,6.029,13.3046,4.60112,2470.614,2023-5-27T10:18:40Z
2023-05-27T08:19:31Z,42.805,6.029,13.3043,4.60126,2470.624,2023-5-27T10:21:44Z
2023-05-27T08:22:34Z,42.805,6.029,13.3046,4.60109,2470.624,2023-5-27T10:24:47Z
2023-05-27T08:25:37Z,42.805,6.029,13.3049,4.60117,2470.586,2023-5-27T10:27:50Z
2023-05-27T08:28:40Z,42.805,6.029,13.3047,4.60112,2470.624,2023-5-27T10:30:53Z
2023-05-27T08:31:42Z,42.805,6.029,13.3054,4.60122,2470.637,2023-5-27T10:33:54Z
2023-05-27T08:34:45Z,42.805,6.029,13.3061,4.60127,2470.624,2023-5-27T10:36:57Z
2023-05-27T08:37:48Z,42.805,6.029,13.3045,4.60107,2470.637,2023-5-27T10:40:00Z
2023-05-27T08:40:51Z,42.805,6.029,13.3046,4.60110,2470.624,2023-5-27T10:43:03Z
2023-05-27T08:43:54Z,42.805,6.029,13.3047,4.60108,2470.637,2023-5-27T10:46:07Z
2023-05-27T08:46:57Z,42.805,6.029,13.3046,4.60108,2470.624,2023-5-27T10:49:10Z
2023-05-27T08:50:00Z,42.805,6.029,13.3042,4.60104,2470.67,2023-5-27T10:52:13Z
2023-05-27T08:53:03Z,42.805,6.029,13.3036,4.60101,2470.624,2023-5-27T10:55:16Z
2023-05-27T08:56:06Z,42.805,6.029,13.3048,4.60099,2470.624,2023-5-27T10:58:19Z
2023-05-27T08:59:09Z,42.805,6.029,13.3046,4.60104,2470.637,2023-5-27T11:01:22Z
2023-05-27T09:02:13Z,42.805,6.029,13.3042,4.60112,2470.637,2023-5-27T11:04:25Z
2023-05-27T09:05:16Z,42.805,6.029,13.3045,4.60101,2470.624,2023-5-27T11:07:28Z
2023-05-27T09:08:19Z,42.805,6.029,13.3041,4.60116,2470.646,2023-5-27T11:10:31Z
2023-05-27T09:11:22Z,42.805,6.029,13.3041,4.60115,2470.637,2023-5-27T11:13:34Z
2023-05-27T09:14:25Z,42.805,6.029,13.3047,4.60102,2470.6,2023-5-27T11:16:37Z
2023-05-27T09:17:28Z,42.805,6.029,13.3035,4.60119,2470.67,2023-5-27T11:19:40Z
2023-05-27T09:20:31Z,42.805,6.029,13.3040,4.60125,2470.637,2023-5-27T11:22:44Z
2023-05-27T09:23:34Z,42.805,6.029,13.3052,4.60132,2470.661,2023-5-27T11:25:47Z
2023-05-27T09:26:37Z,42.805,6.029,13.3040,4.60121,2470.624,2023-5-27T11:28:50Z
2023-05-27T09:29:40Z,42.805,6.029,13.3042,4.60117,2470.624,2023-5-27T11:31:53Z
2023-05-27T09:32:43Z,42.805,6.029,13.3039,4.60110,2470.661,2023-5-27T11:34:56Z
2023-05-27T09:35:47Z,42.805,6.029,13.3041,4.60132,2470.614,2023-5-27T11:37:59Z
2023-05-27T09:38:50Z,42.805,6.029,13.3044,4.60124,2470.646,2023-5-27T11:41:02Z
2023-05-27T09:41:53Z,42.805,6.029,13.3046,4.60144,2470.624,2023-5-27T11:44:05Z
2023-05-27T09:44:56Z,42.805,6.029,13.3045,4.60125,2470.624,2023-5-27T11:47:08Z
2023-05-27T09:47:59Z,42.805,6.029,13.3039,4.60124,2470.637,2023-5-27T11:50:11Z
2023-05-27T09:51:02Z,42.805,6.029,13.3046,4.60121,2470.646,2023-5-27T11:53:14Z
2023-05-27T09:54:05Z,42.805,6.029,13.3042,4.60127,2470.661,2023-5-27T11:56:18Z
2023-05-27T09:57:08Z,42.805,6.029,13.3034,4.60110,2470.6,2023-5-27T11:59:21Z
2023-05-27T10:00:11Z,42.805,6.029,13.3038,4.60109,2470.637,2023-5-27T12:02:24Z
2023-05-27T10:03:14Z,42.805,6.029,13.3041,4.60121,2470.624,2023-5-27T12:05:27Z
2023-05-27T10:06:17Z,42.805,6.029,13.3041,4.60117,2470.646,2023-5-27T12:08:30Z
2023-05-27T10:09:20Z,42.805,6.029,13.3041,4.60122,2470.624,2023-5-27T12:11:33Z
2023-05-27T10:12:24Z,42.805,6.029,13.3036,4.60108,2470.646,2023-5-27T12:14:36Z
2023-05-27T10:15:27Z,42.805,6.029,13.3040,4.60117,2470.624,2023-5-27T12:17:39Z
2023-05-27T10:18:30Z,42.805,6.029,13.3039,4.60124,2470.646,2023-5-27T12:20:42Z
2023-05-27T10:21:33Z,42.805,6.029,13.3040,4.60115,2470.637,2023-5-27T12:23:45Z
2023-05-27T10:24:36Z,42.805,6.029,13.3042,4.60123,2470.661,2023-5-27T12:26:48Z
2023-05-27T10:27:39Z,42.805,6.029,13.3041,4.60117,2470.646,2023-5-27T12:29:52Z
2023-05-27T10:30:42Z,42.805,6.029,13.3041,4.60114,2470.646,2023-5-27T12:32:55Z
2023-05-27T10:33:45Z,42.805,6.029,13.3037,4.60110,2470.637,2023-5-27T12:35:58Z
2023-05-27T10:36:48Z,42.805,6.029,13.3042,4.60120,2470.661,2023-5-27T12:39:01Z
2023-05-27T10:39:51Z,42.805,6.029,13.3042,4.60125,2470.661,2023-5-27T12:42:04Z
2023-05-27T10:42:54Z,42.805,6.029,13.3047,4.60127,2470.646,2023-5-27T12:45:07Z
2023-05-27T10:45:58Z,42.805,6.029,13.3048,4.60131,2470.661,2023-5-27T12:48:10Z
2023-05-27T10:49:01Z,42.805,6.029,13.3039,4.60116,2470.661,2023-5-27T12:51:13Z
2023-05-27T10:52:04Z,42.805,6.029,13.3042,4.60130,2470.646,2023-5-27T12:54:16Z
2023-05-27T10:55:07Z,42.805,6.029,13.3041,4.60114,2470.67,2023-5-27T12:57:19Z
2023-05-27T10:58:10Z,42.805,6.029,13.3041,4.60117,2470.624,2023-5-27T13:00:22Z
2023-05-27T11:01:13Z,42.805,6.029,13.3043,4.60129,2470.637,2023-5-27T13:03:25Z
2023-05-27T11:04:16Z,42.805,6.029,13.3039,4.60124,2470.637,2023-5-27T13:06:29Z
2023-05-27T11:07:19Z,42.805,6.029,13.3036,4.60120,2470.684,2023-5-27T13:09:32Z
2023-05-27T11:10:22Z,42.805,6.029,13.3045,4.60128,2470.684,2023-5-27T13:12:35Z
2023-05-27T11:13:25Z,42.805,6.029,13.3043,4.60122,2470.646,2023-5-27T13:15:38Z
2023-05-27T11:16:28Z,42.805,6.029,13.3040,4.60124,2470.637,2023-5-27T13:18:41Z
2023-05-27T11:19:31Z,42.805,6.029,13.3041,4.60119,2470.661,2023-5-27T13:21:44Z
2023-05-27T11:22:35Z,42.805,6.029,13.3043,4.60119,2470.67,2023-5-27T13:24:47Z
2023-05-27T11:25:38Z,42.805,6.029,13.3041,4.60112,2470.67,2023-5-27T13:27:50Z
2023-05-27T11:28:41Z,42.805,6.029,13.3039,4.60115,2470.646,2023-5-27T13:30:53Z
2023-05-27T11:31:44Z,42.805,6.029,13.3036,4.60122,2470.624,2023-5-27T13:33:56Z
2023-05-27T11:34:47Z,42.805,6.029,13.3041,4.60127,2470.6,2023-5-27T13:36:59Z
2023-05-27T11:37:50Z,42.805,6.029,13.3043,4.60119,2470.661,2023-5-27T13:40:03Z
2023-05-27T11:40:53Z,42.805,6.029,13.3038,4.60114,2470.646,2023-5-27T13:43:06Z
2023-05-27T11:43:56Z,42.805,6.029,13.3036,4.60117,2470.646,2023-5-27T13:46:09Z
2023-05-27T11:46:59Z,42.805,6.029,13.3039,4.60119,2470.624,2023-5-27T13:49:12Z
2023-05-27T11:50:02Z,42.805,6.029,13.3032,4.60108,2470.624,2023-5-27T13:52:15Z
2023-05-27T11:53:05Z,42.805,6.029,13.3054,4.60119,2470.637,2023-5-27T13:55:18Z
2023-05-27T11:56:09Z,42.805,6.029,13.3040,4.60119,2470.661,2023-5-27T13:58:21Z
2023-05-27T11:59:12Z,42.805,6.029,13.3041,4.60123,2470.614,2023-5-27T14:01:24Z
2023-05-27T12:02:15Z,42.805,6.029,13.3040,4.60099,2470.684,2023-5-27T14:04:27Z
2023-05-27T12:05:18Z,42.805,6.029,13.3036,4.60111,2470.637,2023-5-27T14:07:30Z
2023-05-27T12:08:21Z,42.805,6.029,13.3033,4.60111,2470.624,2023-5-27T14:10:33Z
2023-05-27T12:11:24Z,42.805,6.029,13.3032,4.60110,2470.637,2023-5-27T14:13:36Z
2023-05-27T12:14:27Z,42.805,6.029,13.3036,4.60110,2470.661,2023-5-27T14:16:40Z
2023-05-27T12:17:30Z,42.805,6.029,13.3038,4.60113,2470.661,2023-5-27T14:19:43Z
2023-05-27T12:20:33Z,42.805,6.029,13.3036,4.60104,2470.624,2023-5-27T14:22:46Z
2023-05-27T12:23:36Z,42.805,6.029,13.3034,4.60108,2470.624,2023-5-27T14:25:49Z
2023-05-27T12:26:39Z,42.805,6.029,13.3031,4.60108,2470.646,2023-5-27T14:28:52Z
2023-05-27T12:29:42Z,42.805,6.029,13.3037,4.60105,2470.661,2023-5-27T14:31:55Z
2023-05-27T12:32:46Z,42.805,6.029,13.3033,4.60107,2470.684,2023-5-27T14:34:58Z
2023-05-27T12:35:49Z,42.805,6.029,13.3036,4.60114,2470.67,2023-5-27T14:38:01Z
2023-05-27T12:38:52Z,42.805,6.029,13.3036,4.60110,2470.67,2023-5-27T14:41:04Z
2023-05-27T12:41:55Z,42.805,6.029,13.3046,4.60114,2470.67,2023-5-27T14:44:07Z
2023-05-27T12:44:58Z,42.805,6.029,13.3037,4.60110,2470.646,2023-5-27T14:47:10Z
2023-05-27T12:48:01Z,42.805,6.029,13.3037,4.60098,2470.646,2023-5-27T14:50:13Z
2023-05-27T12:51:04Z,42.805,6.029,13.3036,4.60094,2470.684,2023-5-27T14:53:17Z
2023-05-27T12:54:07Z,42.805,6.029,13.3032,4.60110,2470.637,2023-5-27T14:56:20Z
2023-05-27T12:57:10Z,42.805,6.029,13.3034,4.60108,2470.633,2023-5-27T14:59:23Z
2023-05-27T13:00:13Z,42.805,6.029,13.3030,4.60106,2470.646,2023-5-27T15:02:26Z
2023-05-27T13:03:16Z,42.805,6.029,13.3033,4.60103,2470.646,2023-5-27T15:05:29Z
2023-05-27T13:06:20Z,42.805,6.029,13.3034,4.60102,2470.661,2023-5-27T15:08:32Z
2023-05-27T13:09:23Z,42.805,6.029,13.3036,4.60105,2470.661,2023-5-27T15:11:35Z
2023-05-27T13:12:26Z,42.805,6.029,13.3035,4.60108,2470.637,2023-5-27T15:14:38Z
2023-05-27T13:15:29Z,42.805,6.029,13.3034,4.60114,2470.637,2023-5-27T15:17:41Z
2023-05-27T13:18:32Z,42.805,6.029,13.3036,4.60100,2470.684,2023-5-27T15:20:44Z
2023-05-27T13:21:35Z,42.805,6.029,13.3032,4.60102,2470.67,2023-5-27T15:23:47Z
2023-05-27T13:24:38Z,42.805,6.029,13.3037,4.60108,2470.684,2023-5-27T15:26:51Z
2023-05-27T13:27:41Z,42.805,6.029,13.3032,4.60105,2470.624,2023-5-27T15:29:54Z
2023-05-27T13:30:44Z,42.805,6.029,13.3035,4.60102,2470.624,2023-5-27T15:32:57Z
2023-05-27T13:33:47Z,42.805,6.029,13.3033,4.60110,2470.661,2023-5-27T15:36:00Z
2023-05-27T13:36:50Z,42.805,6.029,13.3036,4.60106,2470.646,2023-5-27T15:39:03Z
2023-05-27T13:39:53Z,42.805,6.029,13.3040,4.60114,2470.661,2023-5-27T15:42:06Z
2023-05-27T13:42:57Z,42.805,6.029,13.3033,4.60104,2470.646,2023-5-27T15:45:09Z
2023-05-27T13:46:00Z,42.805,6.029,13.3034,4.60104,2470.684,2023-5-27T15:48:12Z
2023-05-27T13:49:03Z,42.805,6.029,13.3036,4.60105,2470.684,2023-5-27T15:51:15Z
2023-05-27T13:52:06Z,42.805,6.029,13.3030,4.60110,2470.67,2023-5-27T15:54:18Z
2023-05-27T13:55:09Z,42.805,6.029,13.3035,4.60116,2470.624,2023-5-27T15:57:21Z
2023-05-27T13:58:12Z,42.805,6.029,13.3034,4.60103,2470.624,2023-5-27T16:00:25Z
2023-05-27T14:01:15Z,42.805,6.029,13.3033,4.60103,2470.6,2023-5-27T16:03:28Z
2023-05-27T14:04:18Z,42.805,6.029,13.3034,4.60119,2470.624,2023-5-27T16:06:31Z
2023-05-27T14:07:21Z,42.805,6.029,13.3032,4.60099,2470.67,2023-5-27T16:09:34Z
2023-05-27T14:10:24Z,42.805,6.029,13.3027,4.60112,2470.637,2023-5-27T16:12:37Z
2023-05-27T14:13:27Z,42.805,6.029,13.3031,4.60103,2470.646,2023-5-27T16:15:40Z
2023-05-27T14:16:30Z,42.805,6.029,13.3034,4.60114,2470.624,2023-5-27T16:18:43Z
2023-05-27T14:19:34Z,42.805,6.029,13.3034,4.60107,2470.637,2023-5-27T16:21:46Z
2023-05-27T14:22:37Z,42.805,6.029,13.3035,4.60104,2470.624,2023-5-27T16:24:49Z
2023-05-27T14:25:40Z,42.805,6.029,13.3034,4.60113,2470.624,2023-5-27T16:27:52Z
2023-05-27T14:28:43Z,42.805,6.029,13.3038,4.60104,2470.61,2023-5-27T16:30:55Z
2023-05-27T14:31:47Z,42.805,6.029,13.3038,4.60115,2470.67,2023-5-27T16:34:00Z
2023-05-27T14:34:50Z,42.805,6.029,13.3037,4.60114,2470.614,2023-5-27T16:37:03Z
2023-05-27T14:37:53Z,42.805,6.029,13.3037,4.60115,2470.646,2023-5-27T16:40:06Z
2023-05-27T14:40:56Z,42.805,6.029,13.3034,4.60110,2470.624,2023-5-27T16:43:09Z
2023-05-27T14:43:59Z,42.805,6.029,13.3034,4.60104,2470.637,2023-5-27T16:46:12Z
2023-05-27T14:47:02Z,42.805,6.029,13.3035,4.60099,2470.624,2023-5-27T16:49:15Z
2023-05-27T14:50:06Z,42.805,6.029,13.3036,4.60107,2470.637,2023-5-27T16:52:18Z
2023-05-27T14:53:09Z,42.805,6.029,13.3034,4.60102,2470.624,2023-5-27T16:55:21Z
2023-05-27T14:56:12Z,42.805,6.029,13.3036,4.60117,2470.637,2023-5-27T16:58:24Z
2023-05-27T14:59:15Z,42.805,6.029,13.3037,4.60105,2470.661,2023-5-27T17:01:27Z
2023-05-27T15:02:18Z,42.805,6.029,13.3033,4.60114,2470.624,2023-5-27T17:04:30Z
2023-05-27T15:05:21Z,42.805,6.029,13.3031,4.60107,2470.6,2023-5-27T17:07:33Z
2023-05-27T15:08:24Z,42.805,6.029,13.3036,4.60094,2470.646,2023-5-27T17:10:36Z
2023-05-27T15:11:27Z,42.805,6.029,13.3026,4.60092,2470.624,2023-5-27T17:13:40Z